Wind_Speed
36 33 32 33 34 31 31 30 29 28 27 23 26 26 29 29 31 31 33 31 32 31 33 34 36 38 37 41 46 51 53 58 63 62 61 60 60 62
35 34 33 33 34 33 31 31 31 30 29 28 25 28 28 30 30 31 31 32 31 33 34 35 38 38 40 44 47 52 54 61 62 62 62 61 63 68
35 35 34 34 34 34 32 31 32 32 31 29 29 28 29 31 30 30 32 33 30 33 33 36 38 39 42 44 49 51 58 62 64 64 61 62 67 70
35 33 34 34 34 34 33 32 31 33 33 34 29 28 29 31 30 31 33 33 34 33 35 36 37 38 40 45 50 53 58 61 65 65 63 66 72 65
35 34 33 33 33 34 33 33 33 34 34 35 33 31 31 31 31 31 34 34 32 31 33 35 35 37 41 47 51 54 58 63 66 66 64 67 70 56
36 34 34 33 32 32 34 35 34 34 34 36 34 33 32 32 32 32 34 33 30 32 33 34 36 38 43 48 51 56 59 64 66 66 66 69 67 46
37 35 34 33 34 34 33 34 35 37 37 35 34 34 33 33 31 31 32 31 31 31 33 34 37 41 46 48 51 55 60 64 65 65 67 70 62 39
37 35 35 35 35 35 35 34 36 36 36 35 34 34 33 32 32 32 31 33 33 33 32 34 36 41 45 49 52 55 60 64 65 64 67 68 59 36
37 37 35 36 36 37 36 36 36 36 37 35 35 34 33 33 33 34 35 36 35 33 33 34 38 41 45 48 52 55 60 64 65 63 65 68 57 35
39 38 37 38 38 31 34 35 35 37 37 37 36 35 35 34 35 35 36 37 35 33 32 34 38 41 45 48 51 54 59 63 63 63 64 66 55 35
43 42 39 39 38 39 38 40 37 38 40 39 37 36 35 35 35 36 37 36 34 34 33 35 37 41 45 49 51 52 56 61 63 63 64 65 55 34
43 44 44 42 40 41 42 40 43 39 40 40 39 38 37 37 36 37 34 32 34 35 35 36 37 40 44 48 50 51 54 59 62 62 63 63 56 35
43 44 44 44 43 43 46 45 45 43 42 38 43 44 38 39 39 36 34 34 35 37 37 37 37 40 43 46 49 51 54 59 61 61 62 62 57 37
41 44 46 45 44 44 46 46 46 46 46 47 41 41 36 38 39 37 35 35 34 37 38 39 39 39 42 45 48 50 52 57 59 60 61 61 57 41
44 46 47 46 46 49 47 47 49 49 47 45 41 39 42 42 38 35 36 36 37 37 38 38 39 38 41 43 46 49 51 55 58 58 60 61 56 43
47 50 50 45 47 52 47 49 49 47 39 42 44 42 38 37 35 34 34 36 36 35 37 37 37 37 39 41 44 47 49 52 56 57 57 58 57 44
52 47 42 47 49 45 45 44 45 43 41 42 43 41 37 35 37 37 34 35 38 37 37 36 36 37 39 40 42 46 47 51 55 56 56 56 56 46
52 52 47 44 50 48 47 45 44 43 41 44 46 44 40 37 38 38 38 39 37 38 36 36 36 37 39 39 41 44 46 49 54 55 54 55 54 49
53 51 50 48 49 49 47 47 44 48 45 43 39 36 39 40 39 39 39 36 36 36 34 34 35 37 39 40 40 43 45 47 52 54 52 53 53 49
55 53 51 52 53 52 52 51 48 44 43 44 43 40 38 38 38 39 38 36 34 33 32 33 35 37 39 40 40 41 43 45 49 54 50 50 52 50
57 56 54 54 54 53 53 52 50 47 48 46 44 45 43 42 41 38 36 36 35 33 32 33 36 37 39 41 40 41 40 43 48 52 49 48 49 49
60 57 55 55 53 47 55 52 49 47 48 45 44 45 47 43 40 39 37 36 35 33 32 33 36 37 39 41 40 39 39 40 45 49 48 47 47 46
61 58 57 58 56 56 56 54 52 49 48 45 43 46 47 42 38 37 38 37 37 35 33 34 35 36 38 38 37 37 37 38 42 45 45 46 46 45
Wind_Direction
320 329 330 327 322 322 322 321 318 315 305 296 295 294 296 298 299 302 307 307 306 306 309 316 318 319 318 321 325 325 328 329 325 322 318 317 318 316
325 325 327 323 320 322 319 317 317 314 310 306 302 302 300 299 302 307 308 308 310 310 314 315 318 318 317 324 323 327 331 333 330 326 322 322 324 325
317 321 321 320 316 318 317 316 314 312 310 306 305 304 302 302 306 307 306 307 308 310 314 316 319 318 320 323 325 329 332 335 333 330 327 328 329 330
311 314 316 316 316 315 314 313 312 311 309 306 305 304 303 303 306 306 307 309 312 314 319 319 320 320 323 325 329 332 336 336 336 333 330 334 334 332
306 310 311 313 313 311 313 313 312 310 309 308 307 308 306 304 304 305 306 310 312 315 318 319 320 322 326 328 332 335 339 340 337 336 336 337 338 333
302 306 307 308 309 311 312 313 312 309 308 307 306 305 303 302 303 306 310 311 312 314 318 317 318 324 329 330 333 337 342 342 340 339 340 340 341 332
298 302 303 305 307 308 311 315 314 310 309 306 304 303 301 301 303 306 309 311 311 315 316 317 317 325 328 330 334 338 343 344 342 341 343 342 342 331
295 298 300 301 302 307 307 313 317 314 310 307 305 305 303 302 303 303 305 313 314 312 314 317 322 327 331 333 335 339 344 345 344 344 346 345 343 331
291 294 296 297 300 303 304 306 315 312 308 305 304 305 305 303 303 301 301 305 311 310 310 316 324 328 331 334 336 340 345 347 346 346 347 347 344 332
290 291 294 297 298 299 305 306 309 313 310 306 304 303 303 303 300 303 305 305 307 308 308 313 321 328 332 336 336 341 345 348 347 347 349 348 346 333
288 288 287 288 294 297 302 305 303 306 309 309 306 305 303 302 302 301 304 306 306 307 305 309 318 326 331 335 336 341 344 348 348 348 349 349 347 335
285 287 284 286 288 291 298 297 302 302 303 304 304 302 299 302 301 303 303 305 309 307 305 306 315 323 329 334 337 341 343 348 348 349 350 349 349 338
287 285 281 283 284 289 293 295 295 296 300 297 303 302 299 301 301 303 306 307 306 307 305 307 312 320 327 332 336 339 343 347 349 349 351 350 349 341
286 281 282 283 285 289 289 292 293 297 301 300 299 297 298 303 300 298 301 303 302 307 308 308 309 316 325 330 336 339 342 346 349 349 350 351 349 345
283 281 281 279 280 281 285 289 293 295 303 301 294 291 294 296 299 300 296 299 301 305 309 311 310 315 322 328 334 339 342 346 349 349 350 350 350 347
283 279 275 281 284 287 279 286 293 294 299 300 301 295 300 296 293 299 299 301 305 307 307 308 310 314 320 326 332 338 341 346 349 349 350 350 349 349
275 279 269 276 275 288 284 291 294 292 297 297 301 290 293 290 289 296 295 298 301 303 303 304 308 313 318 323 329 337 340 344 348 349 349 350 349 350
273 278 278 277 275 286 287 288 288 287 293 296 294 297 283 287 288 291 296 299 298 300 302 302 306 310 316 320 326 334 338 342 346 348 348 351 349 348
274 275 277 278 278 278 279 278 274 280 286 290 288 292 290 286 283 286 294 295 298 300 299 300 303 309 313 318 324 330 334 339 344 348 348 350 349 348
270 272 274 275 275 276 276 275 274 276 283 281 285 289 294 297 289 285 289 293 296 299 298 299 301 306 311 315 321 327 332 336 341 345 347 349 348 348
269 270 272 273 271 270 273 274 276 272 274 281 278 280 288 293 293 287 286 290 294 297 297 297 299 303 308 312 318 323 330 334 339 344 345 349 348 347
268 268 268 269 266 263 270 271 270 272 274 276 274 278 285 287 289 286 285 289 293 294 295 297 299 303 307 311 315 320 327 332 337 341 343 348 349 346
264 262 260 255 262 263 266 269 269 270 272 274 274 277 286 282 283 285 288 289 292 295 295 297 300 304 307 310 313 318 325 329 335 341 342 345 348 346
Height
5760 5756 5752 5747 5744 5741 5737 5733 5730 5727 5724 5723 5720 5719 5715 5714 5711 5708 5705 5701 5696 5692 5687 5682 5677 5671 5666 5660 5654 5646 5637 5626 5614 5601 5589 5577 5565 5554
5756 5752 5747 5744 5739 5736 5732 5728 5725 5721 5718 5715 5713 5710 5709 5706 5704 5700 5697 5693 5688 5683 5679 5674 5669 5663 5658 5652 5645 5636 5625 5614 5600 5587 5574 5561 5548 5533
5751 5747 5743 5739 5735 5731 5728 5724 5719 5715 5712 5710 5706 5704 5702 5699 5697 5693 5690 5686 5682 5677 5672 5667 5661 5655 5650 5644 5635 5625 5614 5601 5588 5574 5560 5546 5531 5513
5746 5743 5739 5735 5730 5726 5723 5719 5715 5711 5707 5703 5700 5698 5696 5692 5689 5686 5682 5678 5673 5669 5664 5659 5654 5648 5642 5635 5626 5616 5604 5590 5577 5563 5547 5533 5514 5496
5740 5737 5733 5730 5726 5721 5717 5714 5709 5705 5701 5697 5693 5690 5687 5684 5681 5679 5675 5671 5666 5663 5658 5652 5647 5642 5635 5626 5617 5606 5594 5580 5567 5551 5535 5519 5501 5484
5734 5731 5727 5724 5720 5716 5712 5708 5704 5699 5695 5691 5687 5683 5680 5678 5675 5671 5667 5664 5660 5655 5651 5646 5641 5635 5626 5617 5608 5597 5585 5571 5556 5541 5525 5508 5489 5475
5728 5725 5722 5718 5714 5710 5706 5702 5698 5693 5689 5685 5681 5678 5674 5671 5668 5665 5662 5657 5653 5649 5644 5639 5634 5627 5620 5612 5601 5589 5577 5562 5548 5533 5516 5499 5482 5470
5721 5718 5715 5711 5708 5704 5700 5696 5691 5686 5683 5679 5675 5671 5668 5665 5662 5659 5655 5651 5647 5643 5638 5633 5627 5619 5611 5601 5592 5581 5569 5555 5540 5525 5509 5492 5476 5465
5713 5711 5708 5704 5701 5697 5693 5690 5685 5680 5676 5672 5669 5665 5661 5658 5655 5652 5648 5644 5640 5635 5631 5625 5619 5612 5604 5595 5585 5574 5562 5548 5534 5520 5503 5487 5471 5462
5705 5702 5700 5697 5694 5689 5686 5682 5679 5674 5670 5666 5662 5658 5654 5651 5647 5644 5641 5636 5632 5628 5623 5618 5612 5605 5598 5589 5578 5568 5556 5542 5529 5514 5498 5482 5467 5458
5696 5693 5691 5689 5685 5681 5678 5675 5671 5667 5662 5659 5654 5650 5646 5643 5639 5636 5632 5628 5624 5620 5616 5611 5605 5598 5591 5583 5575 5563 5550 5537 5524 5510 5495 5480 5465 5456
5685 5682 5681 5679 5676 5672 5669 5665 5663 5659 5656 5651 5647 5643 5639 5635 5631 5627 5624 5620 5616 5612 5608 5603 5598 5592 5585 5577 5568 5558 5547 5534 5520 5506 5493 5478 5463 5453
5673 5672 5669 5667 5665 5663 5659 5656 5653 5650 5647 5643 5639 5634 5630 5626 5622 5618 5615 5611 5607 5604 5600 5596 5591 5585 5579 5571 5562 5553 5542 5530 5517 5504 5490 5476 5462 5452
5660 5659 5657 5656 5654 5652 5649 5646 5642 5640 5637 5632 5628 5625 5622 5618 5614 5610 5607 5603 5600 5596 5592 5588 5583 5577 5571 5564 5556 5547 5537 5526 5513 5501 5488 5475 5461 5451
5648 5647 5646 5643 5642 5640 5637 5634 5632 5629 5626 5622 5617 5615 5612 5609 5605 5601 5598 5595 5591 5587 5584 5580 5575 5570 5564 5558 5550 5542 5532 5522 5510 5499 5486 5473 5460 5449
5636 5633 5633 5632 5630 5628 5626 5623 5620 5618 5615 5611 5608 5606 5602 5599 5596 5592 5590 5586 5583 5579 5575 5571 5567 5562 5556 5551 5544 5536 5527 5518 5506 5495 5484 5471 5459 5448
5624 5620 5620 5617 5617 5613 5614 5610 5609 5607 5603 5601 5598 5595 5592 5589 5587 5584 5581 5577 5574 5570 5566 5563 5559 5554 5549 5543 5537 5530 5522 5513 5503 5492 5481 5470 5458 5447
5609 5608 5607 5607 5606 5603 5601 5599 5598 5596 5593 5590 5588 5585 5582 5579 5577 5575 5572 5568 5564 5561 5557 5554 5550 5546 5541 5536 5531 5523 5516 5508 5499 5488 5478 5468 5456 5446
5595 5595 5595 5594 5591 5590 5588 5587 5584 5584 5582 5579 5576 5573 5571 5569 5566 5564 5562 5558 5555 5551 5548 5545 5542 5538 5534 5529 5523 5517 5510 5502 5494 5485 5475 5464 5454 5444
5579 5579 5578 5577 5576 5575 5574 5573 5572 5571 5571 5568 5566 5563 5560 5558 5555 5553 5551 5548 5545 5541 5538 5535 5532 5529 5525 5521 5516 5511 5503 5496 5488 5481 5472 5462 5452 5442
5560 5561 5561 5560 5559 5559 5558 5558 5558 5558 5557 5556 5554 5552 5550 5547 5545 5542 5540 5538 5534 5531 5528 5526 5523 5520 5516 5513 5508 5503 5497 5489 5482 5475 5468 5460 5449 5439
5541 5542 5543 5543 5543 5544 5542 5543 5543 5543 5543 5542 5541 5539 5538 5536 5533 5531 5530 5527 5524 5521 5518 5516 5513 5510 5507 5504 5500 5494 5489 5484 5476 5468 5461 5455 5446 5436
5520 5521 5523 5525 5525 5526 5527 5528 5528 5529 5528 5528 5527 5527 5525 5523 5522 5520 5519 5517 5514 5512 5509 5506 5504 5501 5498 5495 5491 5487 5481 5476 5470 5463 5455 5448 5441 5433